Printer-friendly version

IAU Minor Planet Center

Minor Planet Center

MPEC 2007-V60 : 2007 VR29

The following Minor Planet Electronic Circular may be linked-to from your own Web pages, but must not otherwise be redistributed electronically.


Read MPEC 2007-V59 Read MPEC 2007-V61


M.P.E.C. 2007-V60                                Issued 2007 Nov. 7, 22:06 UT

     The Minor Planet Electronic Circulars contain information on unusual
         minor planets and routine data on comets.  They are published
   on behalf of Commission 20 of the International Astronomical Union by the
          Minor Planet Center, Smithsonian Astrophysical Observatory,
                          Cambridge, MA 02138, U.S.A.

             Prepared using the Tamkin Foundation Computer Network

                              MPC@CFA.HARVARD.EDU
          URL http://www.cfa.harvard.edu/iau/mpc.html  ISSN 1523-6714

                                   2007 VR29

Observations:
     K07V29R* C2007 11 06.19511 01 14 48.83 +08 44 07.3          19.6   EV060704
     K07V29R  C2007 11 06.21899 01 14 58.84 +08 39 32.4          20.0   EV060704
     K07V29R  C2007 11 06.23100 01 15 03.93 +08 37 12.7          20.0   EV060704
     K07V29R  C2007 11 06.24294 01 15 08.78 +08 34 53.5          19.7   EV060704
     K07V29R  C2007 11 07.21405901 23 01.11 +05 16 28.6          19.9 V EV060H55
     K07V29R  C2007 11 07.21627401 23 02.14 +05 16 00.1          19.9 V EV060H55
     K07V29R  C2007 11 07.21850901 23 03.19 +05 15 31.0          20.2 V EV060H55
     K07V29R  C2007 11 07.24751 01 23 17.75 +05 09 16.9          19.2 R EV060734
     K07V29R  C2007 11 07.24942 01 23 18.64 +05 08 51.6          19.1 R EV060734
     K07V29R  C2007 11 07.25652 01 23 21.95 +05 07 19.8          19.4 R EV060734
     K07V29R  C2007 11 07.26125 01 23 24.20 +05 06 18.2          19.4 R EV060734

Observer details:
704 Lincoln Laboratory ETS, New Mexico.  Observers M. Bezpalko, D. Torres,
    R. Kracke, G. Spitz, J. Kistler.  Measurers J. Stuart, S. Scruggs.  1.0-m
    f/2.15 reflector + CCD.
734 Farpoint Observatory.  Observer J. Majers.  Measurer G. Hug.  0.7-m
    reflector + CCD.
H55 Astronomical Research Observatory, Charleston.  Observer R. Holmes.
    0.81-m f/4.0 astrograph + CCD.

Orbital elements:
2007 VR29                                                Earth MOID = 0.0500 AU
Epoch 2007 Oct. 27.0 TT = JDT 2454400.5                 MPC
M 345.52107              (2000.0)            P               Q
n   0.36207575     Peri.  214.54527     +0.24157630     -0.95859466
a   1.9495592      Node   222.05012     +0.93335083     +0.27205260
e   0.4905871      Incl.   13.01060     +0.26551292     -0.08416451
P   2.72           H   24.5           G   0.15           U   9
Residuals in seconds of arc
071106 704  0.6-  0.1-    071107 H55  0.3+  0.2+    071107 734  0.1+  0.5-
071106 704  0.2+  0.7+    071107 H55  0.1+  0.4+    071107 734  0.5-  0.1-
071106 704  1.3+  0.0     071107 H55  0.1+  0.2+    071107 734  0.3-  0.3-
071106 704  0.8-  0.6-    071107 734  0.3+  0.1+

Ephemeris:
2007 VR29                a,e,i = 1.95, 0.49, 13                  q = 0.9931
Date    TT    R. A. (2000) Decl.     Delta      r     Elong.  Phase     V
2007 11 06    01 13.30   +09 22.2    0.0695   1.056   157.3    21.2    19.9
2007 11 07    01 21.23   +06 03.4    0.0658   1.052   156.8    21.7    19.8
2007 11 08    01 30.02   +02 21.9    0.0624   1.048   155.8    22.8    19.7
2007 11 09    01 39.75   -01 42.8    0.0595   1.044   154.0    24.6    19.6
2007 11 10    01 50.51   -06 09.6    0.0570   1.041   151.4    27.1    19.6
2007 11 11    02 02.39   -10 56.0    0.0550   1.037   148.2    30.2    19.6
2007 11 12    02 15.49   -15 56.8    0.0537   1.034   144.3    34.0    19.6
2007 11 13    02 29.86   -21 05.0    0.0529   1.031   139.9    38.2    19.7
2007 11 14    02 45.54   -26 11.8    0.0528   1.028   135.2    42.7    19.8
2007 11 15    03 02.53   -31 07.7    0.0534   1.025   130.4    47.3    20.0
2007 11 16    03 20.76   -35 44.3    0.0545   1.022   125.7    51.8    20.1
2007 11 17    03 40.10   -39 54.9    0.0562   1.019   121.2    56.1    20.3
2007 11 18    04 00.32   -43 35.1    0.0584   1.016   117.0    60.1    20.5
2007 11 19    04 21.14   -46 43.4    0.0610   1.014   113.2    63.6    20.7
2007 11 20    04 42.21   -49 20.1    0.0641   1.012   109.7    66.8    20.9
2007 11 21    05 03.18   -51 27.4    0.0674   1.009   106.7    69.6    21.1
2007 11 22    05 23.68   -53 08.2    0.0711   1.007   104.0    72.1    21.3
2007 11 23    05 43.42   -54 26.2    0.0749   1.005   101.7    74.2    21.5
2007 11 24    06 02.16   -55 24.9    0.0790   1.004    99.6    75.9    21.6
2007 11 25    06 19.74   -56 07.8    0.0832   1.002    97.8    77.5    21.8
2007 11 26    06 36.07   -56 37.8    0.0876   1.000    96.3    78.7    22.0

Timothy B. Spahr             (C) Copyright 2007 MPC           M.P.E.C. 2007-V60

Read MPEC 2007-V59 Read MPEC 2007-V61


Our Web policy. Index to the CBAT/MPC/ICQ pages.


Valid HTML 4.01!